Hourly Weather Kenitra

Today, 1 October, Thursday

Time Temperature Precipitation Wind Pressure Humidity
00:00 +20°C° 0 mm 2 mps 760 mmHg 90%
01:00 +21°C° 0 mm 1 mps 760 mmHg 91%
02:00 +20°C° 0 mm 1 mps 759 mmHg 91%
03:00 +20°C° 0 mm 1 mps 759 mmHg 92%
04:00 +20°C° 0 mm 1 mps 759 mmHg 92%
05:00 +19°C° 0 mm 2 mps 759 mmHg 93%
06:00 +19°C° 0 mm 2 mps 760 mmHg 92%
07:00 +20°C° 0 mm 2 mps 760 mmHg 85%
08:00 +23°C° 0 mm 2 mps 760 mmHg 77%
09:00 +24°C° 0 mm 3 mps 760 mmHg 70%
10:00 +26°C° 0 mm 3 mps 760 mmHg 63%
11:00 +27°C° 0 mm 3 mps 760 mmHg 55%
12:00 +28°C° 0 mm 4 mps 760 mmHg 48%
13:00 +28°C° 0 mm 4 mps 759 mmHg 50%
14:00 +28°C° 0 mm 5 mps 759 mmHg 51%
15:00 +28°C° 0 mm 6 mps 758 mmHg 53%
16:00 +26°C° 0 mm 5 mps 759 mmHg 61%
17:00 +23°C° 0 mm 5 mps 759 mmHg 69%
18:00 +21°C° 0 mm 4 mps 759 mmHg 77%
19:00 +21°C° 0 mm 3 mps 759 mmHg 81%
20:00 +20°C° 0 mm 3 mps 760 mmHg 85%
21:00 +19°C° 0 mm 2 mps 760 mmHg 88%
22:00 +19°C° 0 mm 2 mps 760 mmHg 88%
23:00 +20°C° 0 mm 1 mps 760 mmHg 88%

Tomorrow, 2 October, Friday

Time Temperature Precipitation Wind Pressure Humidity
00:00 +19°C° 0 mm 1 mps 759 mmHg 88%
01:00 +19°C° 0 mm 1 mps 759 mmHg 88%
02:00 +19°C° 0 mm 2 mps 758 mmHg 87%
03:00 +19°C° 0 mm 2 mps 758 mmHg 86%
04:00 +19°C° 0.1 mm 2 mps 758 mmHg 85%
05:00 +19°C° 0.1 mm 3 mps 758 mmHg 83%
06:00 +20°C° 0.1 mm 3 mps 757 mmHg 81%
07:00 +20°C° 0.1 mm 3 mps 758 mmHg 79%
08:00 +21°C° 0.1 mm 3 mps 758 mmHg 77%
09:00 +21°C° 0.1 mm 4 mps 758 mmHg 76%
10:00 +22°C° 0 mm 4 mps 757 mmHg 72%
11:00 +23°C° 0 mm 5 mps 757 mmHg 68%
12:00 +23°C° 0 mm 5 mps 757 mmHg 64%
13:00 +24°C° 0 mm 6 mps 757 mmHg 63%
14:00 +24°C° 0 mm 6 mps 756 mmHg 61%
15:00 +24°C° 0 mm 7 mps 756 mmHg 60%
16:00 +23°C° 0 mm 7 mps 756 mmHg 65%
17:00 +23°C° 0 mm 7 mps 756 mmHg 69%
18:00 +22°C° 0 mm 7 mps 756 mmHg 73%
19:00 +22°C° 0.3 mm 6 mps 757 mmHg 76%
20:00 +21°C° 0.3 mm 6 mps 757 mmHg 79%
21:00 +21°C° 0.3 mm 6 mps 758 mmHg 81%
22:00 +21°C° 0.5 mm 7 mps 757 mmHg 78%
23:00 +21°C° 0.5 mm 7 mps 757 mmHg 76%

Day after tomorrow, 3 October, Saturday

Time Temperature Precipitation Wind Pressure Humidity
00:00 +21°C° 0.5 mm 7 mps 757 mmHg 73%
01:00 +20°C° 0.1 mm 6 mps 757 mmHg 71%
02:00 +20°C° 0.1 mm 6 mps 757 mmHg 68%
03:00 +19°C° 0.1 mm 5 mps 757 mmHg 66%
04:00 +19°C° 0 mm 5 mps 757 mmHg 65%
05:00 +17°C° 0 mm 5 mps 757 mmHg 65%
06:00 +18°C° 0 mm 4 mps 758 mmHg 64%
07:00 +19°C° 0 mm 4 mps 758 mmHg 60%
08:00 +19°C° 0 mm 4 mps 759 mmHg 56%
09:00 +20°C° 0 mm 4 mps 759 mmHg 51%
10:00 +21°C° 0 mm 4 mps 759 mmHg 48%
11:00 +21°C° 0 mm 4 mps 759 mmHg 45%
12:00 +22°C° 0 mm 4 mps 758 mmHg 42%
13:00 +23°C° 0 mm 5 mps 758 mmHg 41%
14:00 +23°C° 0 mm 5 mps 758 mmHg 41%
15:00 +23°C° 0 mm 5 mps 758 mmHg 41%
16:00 +22°C° 0 mm 5 mps 758 mmHg 45%
17:00 +21°C° 0 mm 5 mps 758 mmHg 50%
18:00 +20°C° 0 mm 4 mps 758 mmHg 54%
19:00 +19°C° 0 mm 4 mps 758 mmHg 58%
20:00 +18°C° 0 mm 3 mps 759 mmHg 61%
21:00 +17°C° 0 mm 3 mps 759 mmHg 64%
22:00 +17°C° 0 mm 2 mps 759 mmHg 66%
23:00 +16°C° 0 mm 2 mps 759 mmHg 68%

4 October, Sunday

Time Temperature Precipitation Wind Pressure Humidity
00:00 +16°C° 0 mm 1 mps 759 mmHg 70%
01:00 +16°C° 0 mm 1 mps 759 mmHg 71%
02:00 +16°C° 0 mm 1 mps 758 mmHg 72%
03:00 +16°C° 0 mm 1 mps 758 mmHg 73%
04:00 +15°C° 0 mm 2 mps 758 mmHg 73%
05:00 +15°C° 0 mm 2 mps 758 mmHg 74%
06:00 +15°C° 0 mm 2 mps 758 mmHg 74%
07:00 +17°C° 0 mm 2 mps 759 mmHg 67%
08:00 +20°C° 0 mm 1 mps 759 mmHg 61%
09:00 +22°C° 0 mm 1 mps 759 mmHg 54%
10:00 +23°C° 0 mm 2 mps 759 mmHg 51%
11:00 +24°C° 0 mm 2 mps 759 mmHg 47%
12:00 +25°C° 0 mm 3 mps 759 mmHg 43%
13:00 +25°C° 0 mm 3 mps 759 mmHg 44%
14:00 +25°C° 0 mm 4 mps 758 mmHg 44%
15:00 +25°C° 0 mm 4 mps 758 mmHg 45%
16:00 +23°C° 0 mm 4 mps 758 mmHg 50%
17:00 +22°C° 0 mm 4 mps 759 mmHg 56%
18:00 +21°C° 0 mm 4 mps 759 mmHg 62%
19:00 +20°C° 0 mm 3 mps 759 mmHg 66%
20:00 +20°C° 0 mm 3 mps 760 mmHg 70%
21:00 +19°C° 0 mm 2 mps 761 mmHg 74%
22:00 +19°C° 0 mm 2 mps 761 mmHg 76%
23:00 +19°C° 0 mm 2 mps 761 mmHg 78%

5 October, Monday

Time Temperature Precipitation Wind Pressure Humidity
00:00 +19°C° 0 mm 2 mps 761 mmHg 80%
01:00 +19°C° 0 mm 2 mps 760 mmHg 79%
02:00 +19°C° 0 mm 2 mps 760 mmHg 77%
03:00 +20°C° 0 mm 1 mps 760 mmHg 75%
04:00 +19°C° 0 mm 2 mps 761 mmHg 77%
05:00 +18°C° 0 mm 3 mps 761 mmHg 78%
06:00 +18°C° 0 mm 3 mps 761 mmHg 79%
07:00 +19°C° 0 mm 4 mps 761 mmHg 72%
08:00 +20°C° 0 mm 4 mps 762 mmHg 65%
09:00 +22°C° 0 mm 5 mps 762 mmHg 58%
10:00 +23°C° 0 mm 5 mps 762 mmHg 53%
11:00 +25°C° 0 mm 5 mps 762 mmHg 49%
12:00 +24°C° 0 mm 6 mps 762 mmHg 45%
13:00 +24°C° 0 mm 6 mps 762 mmHg 45%
14:00 +24°C° 0 mm 6 mps 762 mmHg 46%
15:00 +23°C° 0 mm 7 mps 761 mmHg 46%
16:00 +22°C° 0 mm 6 mps 762 mmHg 51%
17:00 +21°C° 0 mm 6 mps 762 mmHg 57%
18:00 +20°C° 0 mm 5 mps 762 mmHg 62%
19:00 +19°C° 0 mm 4 mps 762 mmHg 66%
20:00 +18°C° 0 mm 4 mps 763 mmHg 70%
21:00 +17°C° 0 mm 3 mps 763 mmHg 74%
22:00 +17°C° 0 mm 3 mps 763 mmHg 75%
23:00 +17°C° 0 mm 2 mps 763 mmHg 76%

6 October, Tuesday

Time Temperature Precipitation Wind Pressure Humidity
00:00 +17°C° 0 mm 2 mps 763 mmHg 76%
01:00 +17°C° 0 mm 2 mps 762 mmHg 79%
02:00 +17°C° 0 mm 2 mps 762 mmHg 81%
03:00 +16°C° 0 mm 2 mps 762 mmHg 83%
04:00 +16°C° 0 mm 2 mps 762 mmHg 83%
05:00 +16°C° 0 mm 2 mps 762 mmHg 84%
06:00 +15°C° 0 mm 1 mps 762 mmHg 84%
07:00 +17°C° 0 mm 2 mps 762 mmHg 74%
08:00 +19°C° 0 mm 2 mps 762 mmHg 64%
09:00 +21°C° 0 mm 3 mps 762 mmHg 54%
10:00 +24°C° 0 mm 3 mps 762 mmHg 47%
11:00 +26°C° 0 mm 4 mps 761 mmHg 40%
12:00 +27°C° 0 mm 4 mps 761 mmHg 33%
13:00 +28°C° 0 mm 5 mps 761 mmHg 34%
14:00 +28°C° 0 mm 6 mps 760 mmHg 35%
15:00 +28°C° 0 mm 6 mps 760 mmHg 36%
16:00 +26°C° 0 mm 6 mps 760 mmHg 44%
17:00 +25°C° 0 mm 5 mps 760 mmHg 51%
18:00 +22°C° 0 mm 5 mps 760 mmHg 59%
19:00 +22°C° 0 mm 4 mps 761 mmHg 66%
20:00 +21°C° 0 mm 4 mps 761 mmHg 73%
21:00 +20°C° 0 mm 3 mps 761 mmHg 81%
22:00 +20°C° 0 mm 3 mps 761 mmHg 83%
23:00 +20°C° 0 mm 3 mps 761 mmHg 85%
Show more

We Need Your Consent

Meteoprog and our Service Providers may store and access personal data such as cookies, device identifiers or other similar technologies on your device and process such data to personalise content and ads, as well as provide social media features and to analyse the traffic.

  • Store and/or access information on your device

    Cookies, device identifiers or other information can be stored or accessed on your device for the purposes indicated above.

  • Personalised ads and content, ad and content measurement, audience insights, and products development

    Ads and content can be personalised based on a profile. More data can be added to better personalise ads and content. Ad and content performance can be measured. Insights about the audience who saw the ads and content can be derived. Such data can be used to develop or improve user’s experience, systems and software.

By clicking ‘I Agree’ you will allow the use of indicated cookies, device identifiers, web beacons or other similar technologies. Your settings can be changed in the browser on your device.

For certain purposes, legitimate interests may be relied on, rather than consent. You can read more about this in our Privacy and Cookie Policy.